Powrót do katalogu

SL-12 DEB

LostHEO
NORAD 26802·DEBRIS·🇷🇺 Russia

Wystrzelony Dec 24, 1985 z Baikonur Cosmodrome

Loading…

Następne Przeloty (najbliższe 24 godziny)

TLE

NieaktualneSource: Space-Track

Epoka: Feb 17, 2003, 17:48 UTC

1 26802U 85118Z   03048.74181884 +.00000000 +00000-0 +10000-3 0  9991
2 26802 064.8211 166.9492 4729507 351.4123 001.2704 05.61322920038265

Śledź SL-12 DEB w czasie rzeczywistym z AllMySat

Download on the App Store